Regional Weather Roundup
Issued by NWS

Home | Current Version | Previous Version | Text Only | Print | Product List | Glossary Off
Versions: 1 2 3 4 5 6 7 8 9 10 11 12 13 14 15 16 17 18 19 20 21 22 23 24 25 26 27 28 29 30 31 32 33 34 35 36 37 38 39 40 41 42 43 44 45 46 47 48 49 50

000
ASUS43 KMPX 241610
RWRMN
WEATHER ROUNDUP FOR MINNESOTA
NATIONAL WEATHER SERVICE TWIN CITIES/CHANHASSEN MN
1100 AM CDT THU MAY 24 2018


NOTE: "FAIR" INDICATES FEW OR NO CLOUDS BELOW 12,000 FEET WITH NO
SIGNIFICANT WEATHER AND/OR OBSTRUCTIONS TO VISIBILITY. N/A MEANS
CURRENT SKY AND/OR WEATHER CONDITIONS ARE NOT AVAILABLE.

MNZ060>063-068>070-241700-
   Twin Cities Metro

CITY           SKY/WX    TMP DP  RH WIND       PRES   REMARKS
TWIN CITIES    PTSUNNY   84  67  56 SW12      30.00F
ST PAUL        FAIR      84  66  54 S12G18    30.00F
CRYSTAL        FAIR      84  65  52 S12G20    29.98F
BLAINE         PTSUNNY   84  66  54 S10G17    30.00F
LAKEVILLE      FAIR      84  66  54 S12       30.01F
EDEN PRAIRIE   FAIR      85  66  53 S18G24    29.98F
SOUTH ST PAUL  FAIR      84  64  50 SW12      30.01F
LAKE ELMO      FAIR      82  68  61 SW9       30.03F
$$
MNZ001>005-007-008-013>017-022>024-027-028-241700-
   Northwest Minnesota

CITY           SKY/WX    TMP DP  RH WIND       PRES   REMARKS
BEMIDJI        FAIR      76  64  66 SE15      29.91F
HALLOCK        FAIR      79  66  65 S16G22    29.79F
ROSEAU         FAIR      73  66  78 SE10      29.86F
WARROAD        FAIR      73  68  83 SE12      29.87F THUNDER
THIEF RVR FALL FAIR      79  64  60 S16G22    29.85F
CROOKSTON      FAIR      81  64  57 S18       29.81F
FOSSTON        FAIR      79  63  57 S14G22    29.86F
DETROIT LAKES  FAIR      77  63  61 SW10      29.92R
MOORHEAD       FAIR      73  64  73 S8        29.87F
PARK RAPIDS    FAIR      79  65  62 S17G28    29.91F
MAHNOMEN       CLOUDY    79  63  58 S20G28    29.88R
$$
MNZ006-009>011-018-025>026-241700-
   North Central Minnesota

CITY           SKY/WX    TMP DP  RH WIND       PRES   REMARKS
BAUDETTE       FAIR      73  65  75 SE21G28   29.90F
FLAG ISLAND    FAIR      68  63  83 S16       29.88F
INTL FALLS     CLOUDY    68  65  90 SE12      29.94F
WASKISH          N/A     77  64  65 SE16      29.90F
BIG FORK       FAIR      72  64  78 SE7       29.98F
LONGVILLE      FAIR      75  66  73 SE10G18   29.95F
GRAND RAPIDS   FAIR      70  64  81 SE10      30.00F
CRANE LAKE     LGT RAIN  63  63 100 CALM      30.03F
ORR            RAIN      63  61  94 CALM      29.99F
COOK           CLOUDY    64  63  94 CALM      30.03F
WALKER         PTSUNNY   73  65  74 SE7       29.93F
$$
MNZ012-019>021-037-241700-
   Northeast Minnesota

CITY           SKY/WX    TMP DP  RH WIND       PRES   REMARKS
DULUTH         PTSUNNY   68  64  87 S5        30.05R
ELY            LGT RAIN  66  61  82 SW5       30.05S
HIBBING        LGT RAIN  63  62  97 E8        29.99F FOG
EVELETH        LGT RAIN  63  63 100 CALM      30.03F
DULUTH HARBOR  FOG       50  48  93 E8        30.06R VSB 1/2
TWO HARBORS    LGT RAIN  68  63  83 N3        30.02F
SILVER BAY     LGT RAIN  66  61  82 CALM      30.04S
GRAND MARAIS     N/A     50  41  71 CALM      30.06F
G MARAIS ARPRT FAIR      68  55  64 S8        30.09S
$$
MNZ029>031-032-039>041-046>048-054>057-064-241700-
   West Central Minnesota

CITY           SKY/WX    TMP DP  RH WIND       PRES   REMARKS
FERGUS FALLS   HVY RAIN  73  64  73 SW14      29.87R
WHEATON        MOSUNNY   81  61  50 S10       29.90S
MORRIS         CLOUDY    81  61  50 S21       29.89F
ALEXANDRIA     PTSUNNY   80  64  58 S15       29.94S
ELBOW LAKE     PTSUNNY   76  65  67 S14       29.91S
WADENA         FAIR      77  66  69 S16       29.92S
GLENWOOD       FAIR      81  66  61 S15       29.94S
APPLETON       CLOUDY    79  63  57 S9        29.91S
BENSON         CLOUDY    81  64  57 SW12      29.93S
ORTONVILLE     CLOUDY    79  64  61 S8        29.90S
MADISON        CLOUDY    84  64  51 SW10      29.91S
WILLMAR        FAIR      77  66  69 SE15G22   29.95F
$$
MNZ033>034-036-042>043-049>051-058-059-241700-
   Central Minnesota

CITY           SKY/WX    TMP DP  RH WIND       PRES   REMARKS
ST CLOUD       FAIR      83  65  54 S15G21    29.95F
SAUK CENTRE    FAIR      77  67  71 SE14      29.94S
PAYNESVILLE    FAIR      78  68  72 S14       29.96S
AITKIN         FAIR      75  64  69 S10G20    29.96F
PINE RIVER     FAIR      73  64  73 SE14      29.97F
BRAINERD       FAIR      77  65  66 SE13G21   29.96F
STAPLES        FAIR      75  64  69 SE7G16    29.93F
LONG PRAIRIE   FAIR      77  66  69 E13       29.95S
LITTLE FALLS   FAIR      77  68  73 SE12      29.95F
LITCHFIELD     FAIR      79  70  73 S6        29.96S
BUFFALO        FAIR      82  63  52 S10G17    29.98F
MAPLE LAKE     FAIR      83  67  57 S9        29.98F
HUTCHINSON     FAIR      82  67  60 S13G20    29.98S
$$
MNZ037-044-045-052-053-241700-
   East Central Minnesota

CITY           SKY/WX    TMP DP  RH WIND       PRES   REMARKS
PRINCETON      FAIR      82  68  61 E8        29.97F
MORA           FAIR      73  63  68 SE8       30.02F
CAMBRIDGE      FAIR      82  64  54 SE7       29.99F
RUSH CITY      FAIR      76  65  68 SE7       30.01F
MOOSE LAKE     FAIR      73  64  73 SE5       30.00F
HINCKLEY       FAIR      73  66  78 E10       30.01F
CLOQUET        FAIR      70  63  78 E5        30.03F
MCGREGOR       FAIR      73  64  73 SE12      30.00F
$$
MNZ071>073-080-081-089-090-097-098-241700-
   Southwest Minnesota

CITY           SKY/WX    TMP DP  RH WIND       PRES   REMARKS
MONTEVIDEO     CLOUDY    77  64  65 SW9G18    29.93R
CANBY          CLOUDY    82  63  53 SW8G22    29.93R
MARSHALL       MOSUNNY   79  68  69 S18       29.93S
REDWOOD FALLS  MOSUNNY   79  69  71 S23G29    29.94F
OLIVIA         PTSUNNY   77  68  73 S20       29.93F
PIPESTONE      CLOUDY    75  66  73 S13       29.95F
WINDOM         MOSUNNY   79  57  47 S13G20    29.98F
WORTHINGTON    MOSUNNY   80  66  62 S18G25    29.99F
JACKSON        CLOUDY    77  66  69 S16       30.02F
TRACY          CLOUDY    78  69  73 S15G25    29.92F
SLAYTON        CLOUDY    80  66  62 S25       29.94F
$$
MNZ065>067-074>077-082>085-091>093-241700-
   South Central Minnesota

CITY           SKY/WX    TMP DP  RH WIND       PRES   REMARKS
MANKATO        FAIR      83  63  50 S17       30.00F
NEW ULM        CLOUDY    79  64  61 S14G20    29.98F
ST JAMES       CLOUDY    79  66  65 S15G21    30.01S
FAIRMONT       CLOUDY    79  67  66 S20       30.02F
GLENCOE        FAIR      83  65  55 S15G23    29.97F
FARIBAULT      FAIR      84  64  51 CALM      30.03S
OWATONNA       FAIR      82  66  57 S14       30.03F
WASECA         FAIR      82  63  51 S23       30.04S
ALBERT LEA     FAIR      79  61  53 S16       30.05F
$$
MNZ078>079-086>088-094>096-241700-
   Southeast Minnesota

CITY           SKY/WX    TMP DP  RH WIND       PRES   REMARKS
ROCHESTER      FAIR      83  66  56 SW21      30.07F
RED WING       FAIR      84  61  45 S5        30.02F
STANTON        FAIR      84  65  53 SW13G20   30.01F
DODGE CENTER   FAIR      81  64  57 S16       30.06F
WINONA         FAIR      81  64  57 SW8       30.05F
AUSTIN         FAIR      79  66  65 S13G18    30.06F
PRESTON        FAIR      80  65  60 S13G20    30.09F
$$
ABBREVIATIONS USED IN REMARKS
   TC - TEMPERATURES IN CELSIUS
  WCI - WIND CHILL INDEX
   HX - HEAT INDEX
  VSB - VISIBILITY
$$



USA.gov is the U.S. government's official web portal to all federal, state and local government web resources and services.